Location: Newark
(25.6108°S, 54.5803°W)
Time: 17:09:37
(UTC+00:00)

Courier 1B Rocket - Pass Details

Date: 01 November 2020
Orbit: 920 x 1202 km, 28.2° (Epoch: 22 November)

Event Time Altitude Azimuth Distance (km) Brightness Sun altitude
Rises 14:55:58 0° 266° (W) 3,683 7.9 77.5°
Reaches altitude 10° 14:59:11 10° 279° (W) 2,691 7.4 77.9°
Maximum altitude 15:04:12 24° 330° (NNW) 1,828 7.0 78.3°
Drops below altitude 10° 15:09:06 10° 22° (NNE) 2,605 7.6 78.7°
Sets 15:12:10 0° 36° (NE) 3,539 8.1 78.9°
